FENGYUN 1C DEB

Satellite information

Favourite Embed

Satellite Type and Status

DEBRISIN ORBIT

Key statistics

Satellite FENGYUN 1C DEB at a glance.

Uptime

9609

Days in orbit

Revolutions

≈ 14.1

Per day

Orbit

SSO

Sun Synchronous Orbit

Inclination

98.7

Latest

Satellite identification and parameters

Extended collection of information and parameters for FENGYUN 1C DEB.

Object identification

Identified? True

Debris? True

Object name: FENGYUN 1C DEB

International designator: 1999-025AXQ

Object number (NORAD): 30878

Object ID (CCSDS): 30878

Country: PEOPLES REPUBLIC OF CHINA (PRC)

Current information (Y/N): Y

RCS size: SMALL

Orbital parameters

Period: 102.013 minutes

Inclination: 98.7202 deg

SMA: 7232.104 km

Apoapsis: 882.628 km

Periapsis: 825.31 km

RAAN: 246.3687 deg

Eccentricy: 0.00396273

Argument of periapsis: 230.3673 deg

Mean anomaly: 197.6712 deg

Mean motion: 14.11580918 rev/day

Mean motion (dot): 0.00000962 rev/day2

B* drag term: 0.00054911627 1/REarth

Two-line elements (TLE)

Creation date: Aug. 30, 2025, 3:38 a.m.

Reference frame: TEME

Reference center: EARTH

Epoch: Aug. 29, 2025, 11:28 p.m. UTC

TLE line 0: 0 FENGYUN 1C DEB

TLE line 1: 1 30878U 99025AXQ 25241.97820486 .00000962 00000-0 54912-3 0 9990

TLE line 2: 2 30878 98.7202 246.3687 0039627 230.3673 197.6712 14.11580918948892

Live tracking on map

Real-time ground track for satellite FENGYUN 1C DEB.

In-orbit conjunctions

A list of the most updated potential collisions computed for object FENGYUN 1C DEB.

Target Orbit TCA Probability of collision Miss distance Type
THOR ABLESTAR DEB LEO 2025-08-12 10:20:32 0.000178312 154.0 (m) DEBRIS
COSMOS 1833 LEO 2025-04-30 18:27:37 0.0007383428 215.0 (m) PAYLOAD
NOAA 16 DEB SSO 2024-11-09 01:26:32 0.0001164864 299.0 (m) DEBRIS
DMSP 5D-2 F8 DEB SSO 2024-08-31 21:01:52 0.0002228225 575.0 (m) DEBRIS

Associated space launch

Chinese polar orbiting meteorological satellite

FENGYUN 1C DEB was lifted into orbit during the mission ‘Long March 4B | Feng Yun 1C’, on board a Long March 4B space rocket.

The launch took place on May 10, 1999, 1:33 a.m. from Launch Complex 7.

For more information about the launch, click the button.

Launch to space Long March 4B | Feng Yun 1C
Long March 4B | Feng Yun 1C

Agency: N/A

Status: Launch Successful

Launch date: May 10, 1999, 1:33 a.m. UTC

Rocket: Long March 4B

Launch pad: Launch Complex 7

Location: Taiyuan Satellite Launch Center, People's Republic of China

...

Latest news about this satellite

There are no fresh news available about this satellite. Check back as we update our databases every day.


Newsletter sign-up

Weekly statistics, charts and insights to help you stay on top of the space industry.